Find Starlink 34793

NORAD ID: 65064 Int'l Des: 2025-165 Owner: SPXS Country: US Constellation: starlink operational
LEOCIRCULARRETROGRADESSO

現在のビュー

3D地球を読み込み中...

About Starlink 34793

Starlink 34793 (NORAD 65064) is a starlink constellation satellite (v2 mini) launched Jul 31, 2025 by SPXS of US. It operates in LEO, CIRCULAR, RETROGRADE, SSO orbit with a mass of 575.00 kg.

次回通過

Passes for default location (London). Set your location on the main map for personalized predictions.

高度履歴

Loading altitude history...

軌道要素

1 65064U 25165J 26263.00003471 .00024568 00000-0 76117-3 0 9994
2 65064 97.2853 334.2641 0001748 85.4947 188.2010 15.33430912 5700
Epoch: Sep 20, 2026 • Age: 15 hours

現在のステータス

高度 471.0 km
遠地点 / 近地点 N/A
速度 7.64 km/s
衛星直下点 41.72°N, 64.2°W
打ち上げ日 Jul 31, 2025
運用期間 1.1 years
タイプ internet

技術仕様

分類 Payload
質量 575.00 kg
乾燥質量 530.00 kg
長さ 0.30 m
スパン 29.00 m
形状 ? Box + pan
製造者 SPXS
バスタイプ Starlink V2MO
フェーズステータス In Orbit
所有者/国 SPXS/US

Most Searched